Regional Weather Roundup
Issued by NWS

Home | Current Version | Previous Version | Graphics & Text | Print | Product List | Glossary On
Versions: 1 2 3 4 5 6 7 8 9 10 11 12 13 14 15 16 17 18 19 20 21 22 23 24 25 26 27
000
ASUS45 KSLC 060510
RWRUT

UTAH REGIONAL WEATHER ROUNDUP
NATIONAL WEATHER SERVICE SALT LAKE CITY UT
1100 PM MDT THU MAY 05 2016

UTZ001>011-023>025-060600-

NORTHERN UTAH

CITY           SKY/WX    TMP DP  RH WIND       PRES   REMARKS
BRIGHAM CITY   MOCLDY    69  34  26 CALM      29.80S
HILL AFB       CLOUDY    71  33  24 E17G26    29.82R
LOGAN          CLOUDY    61  46  57 SW5       29.83S
OGDEN          MOCLDY    72  32  23 SE10G23   29.79R
PROVO AIRPORT  CLOUDY   N/A N/A N/A SE21G37   29.81F
SALT LAKE CITY CLOUDY    69  39  33 S5        29.80R
VERNAL         CLOUDY    69  33  26 W8        29.95R
WENDOVER       CLOUDY    68  37  32 NE9       29.79R
HEBER CITY     CLOUDY    63  34  34 NE6       29.91F

$$

UTZ012>022-026-027-060600-

SOUTHERN/CENTRAL UTAH

CITY           SKY/WX    TMP DP  RH WIND       PRES   REMARKS
BLANDING       CLOUDY    63  40  42 NE7       30.01F
BRYCE CANYON   CLOUDY    49  24  37 VRB3      29.99S
CEDAR CITY     MOCLDY    51  30  44 SW5       29.86R
DELTA          MOCLDY    64  34  32 S14       29.79S
HANKSVILLE     PTCLDY    64  36  34 CALM      29.84F
MILFORD        PTCLDY    57  27  31 S5        29.83R
MOAB/CYNLANDS  LGT RAIN  69  45  41 N20       29.87F
PRICE          MOCLDY    63  35  35 E9        29.96F
ST GEORGE      CLOUDY    73  27  17 NW3       29.74F
KANAB          MOCLDY    61  25  25 E5        29.85F

$$

REGIONAL REPORTS     COLORADO/ARIZONA

CITY           SKY/WX    TMP DP  RH WIND       PRES   REMARKS
CRAIG, CO      CLOUDY    49  36  61 CALM      30.01S
GRAND JUNCTION PTCLDY    69  32  25 N13       29.89S
RIFLE          CLOUDY    60  33  36 E5        29.95F
MONTROSE       CLOUDY    63  30  28 SE10      29.98S
CORTEZ         CLOUDY    71  30  21 SE21G31   29.97F
PAGE, AZ       MOCLDY    70  17  13 S9        29.78S
GRAND CANYON   CLOUDY    56  23  27 SW13      29.96S
KINGMAN        MOCLDY    65  26  23 S12       29.78R
FLAGSTAFF      PTCLDY    50  25  37 VRB3      29.98S

$$

REGIONAL REPORTS    NEVADA/IDAHO/WYOMING

CITY           SKY/WX    TMP DP  RH WIND       PRES   REMARKS
LAS VEGAS, NV  CLOUDY    75  27  17 S8        29.64R
ELY            CLOUDY    50  28  42 S9        29.89R
ELKO           CLOUDY    60  33  36 NE7       29.82R
POCATELLO, ID  CLOUDY    65  40  39 SE10      29.84F
BURLEY         CLOUDY    61  45  55 E3        29.79R
EVANSTON, WY   CLOUDY    57  33  40 S9        30.05R
ROCK SPRINGS   CLOUDY    60  22  23 E12       30.02S
KEMMERER         N/A     54  28  37 N7        30.03F

$$




USA.gov is the U.S. government's official web portal to all federal, state and local government web resources and services.